Weather History for KMKC - September, 2012

Change the Weather History Date:

Sunday, September 30, 2012

  Actual Average Record
Temperature  
Mean Temperature 65 °F -  
Max Temperature 78 °F 72 °F 90 °F (2002)
Min Temperature 53 °F 51 °F 43 °F (2003)
Growing Degree Days 15 (Base 50)    
Moisture  
Dew Point 50 °F    
Average Humidity 62    
Maximum Humidity 86    
Minimum Humidity 36    
Precipitation  
Precipitation 0.00 in - - ()
Sea Level Pressure  
Sea Level Pressure 29.94 in    
Wind  
Wind Speed 0 mph (WNW)    
Max Wind Speed 5 mph    
Max Gust Speed -    
Visibility 10 miles    
Events      
Averages and records for this station are not official NWS values.
T = Trace of Precipitation, MM = Missing Value Source: NWS Daily Summary

Daily Weather History Graph

Daily Weather History Graph

Search for Another Location

Airport or City:

Trip Planner

Search our weather history database for the weather conditions in past years. The results will help you decide how hot, cold, wet, or windy it might be!

Date:

Astronomy

Sep. 30, 2012 Rise Set
Actual Time 7:13 AM CDT 7:01 PM CDT
Civil Twilight 6:47 AM CDT 7:28 PM CDT
Nautical Twilight 6:16 AM CDT 7:59 PM CDT
Astronomical Twilight 5:44 AM CDT 8:30 PM CDT
Moon 7:06 PM CDT (9/30) 7:44 AM CDT (9/30)
Length of Visible Light 12h 41m
Length of Day
11h 47m
Full, 100% of the Moon is Illuminated
Sep 30
Full
Oct 8
Last Quarter
Oct 15
New
Oct 21
First Quarter
Oct 29
Full

Hourly Weather History & Observations

Time (CDT) Temp. Dew Point Humidity Pressure Visibility Wind Dir Wind Speed Gust Speed Precip Events Conditions
12:54 AM 57.0 °F 50.0 °F 77% 30.02 in 10.0 mi Calm Calm - N/A   Clear
1:54 AM 57.0 °F 51.1 °F 81% 30.02 in 9.0 mi Calm Calm - N/A   Clear
2:54 AM 55.0 °F 50.0 °F 83% 30.01 in 9.0 mi Calm Calm - N/A   Clear
3:54 AM 55.0 °F 50.0 °F 83% 29.99 in 10.0 mi Calm Calm - N/A   Clear
4:54 AM 54.0 °F 48.9 °F 83% 29.99 in 10.0 mi Calm Calm - N/A   Clear
5:54 AM 53.1 °F 48.9 °F 86% 29.99 in 10.0 mi Calm Calm - N/A   Clear
6:54 AM 53.1 °F 48.9 °F 86% 29.99 in 10.0 mi Calm Calm - N/A   Clear
7:54 AM 54.0 °F 48.9 °F 83% 29.99 in 10.0 mi Calm Calm - N/A   Clear
8:54 AM 57.0 °F 50.0 °F 77% 30.00 in 10.0 mi Calm Calm - N/A   Clear
9:54 AM 61.0 °F 50.0 °F 67% 30.00 in 10.0 mi Calm Calm - N/A   Clear
10:54 AM 66.9 °F 50.0 °F 54% 29.99 in 10.0 mi Calm Calm - N/A   Clear
11:54 AM 69.1 °F 52.0 °F 54% 29.96 in 10.0 mi Calm Calm - N/A   Clear
12:54 PM 73.0 °F 51.1 °F 46% 29.95 in 10.0 mi Calm Calm - N/A   Clear
1:54 PM 75.0 °F 50.0 °F 41% 29.92 in 8.0 mi Calm Calm - N/A   Clear
2:54 PM 75.9 °F 48.9 °F 38% 29.90 in 10.0 mi West 4.6 mph - N/A   Clear
3:54 PM 77.0 °F 48.9 °F 37% 29.88 in 10.0 mi NW 3.5 mph - N/A   Clear
4:54 PM 77.0 °F 48.0 °F 36% 29.87 in 10.0 mi NW 3.5 mph - N/A   Clear
5:54 PM 75.0 °F 48.9 °F 40% 29.87 in 10.0 mi WNW 4.6 mph - N/A   Clear
6:54 PM 72.0 °F 48.9 °F 44% 29.87 in 10.0 mi Calm Calm - N/A   Clear
7:54 PM 70.0 °F 48.9 °F 47% 29.87 in 10.0 mi Calm Calm - N/A   Clear
8:54 PM 68.0 °F 53.1 °F 59% 29.87 in 10.0 mi Calm Calm - N/A   Clear
9:54 PM 64.9 °F 50.0 °F 58% 29.87 in 10.0 mi Calm Calm - N/A   Clear
10:54 PM 64.9 °F 48.9 °F 56% 29.87 in 10.0 mi Calm Calm - N/A   Clear
11:54 PM 63.0 °F 48.9 °F 60% 29.86 in 10.0 mi Calm Calm - N/A   Clear